Regional Weather Roundup
Issued by NWS

Home | Current Version | Previous Version | Text Only | Print | Product List | Glossary Off
Versions: 1 2 3 4 5 6 7 8 9 10 11 12 13 14 15 16 17 18 19 20 21 22 23 24 25 26 27 28 29 30 31 32 33 34 35 36 37 38 39 40 41 42 43 44 45 46 47 48 49 50

000
ASUS43 KIND 252359
RWRIN

WEATHER ROUNDUP FOR INDIANA
NATIONAL WEATHER SERVICE INDIANAPOLIS IN
800 PM EDT WED APR 25 2018

NOTE: "FAIR" INDICATES FEW OR NO CLOUDS BELOW 12,000 FEET WITH NO
SIGNIFICANT WEATHER AND/OR OBSTRUCTIONS TO VISIBILITY.

* - STATION DOES NOT REPORT WEATHER SUCH AS PRECIPITATION OR FOG.

+ - STATION NOT QUALITY CONTROLLED BY THE NATIONAL WEATHER SERVICE.
    USE DATA WITH CAUTION...ESPECIALLY DEWPOINT AND RELATIVE
    HUMIDITY OBSERVATIONS.

INZ001>003-010>013-019-020-260100-
NORTHWEST INDIANA

CITY           SKY/WX    TMP DP  RH WIND       PRES   REMARKS
GARY /AIRPORT/ PTCLDY    43  32  65 NE6       30.06F
KNOX *+        FAIR      46  32  57 N15       30.01S
MONTICELLO +   FAIR      53  25  34 N10       30.00S
6HR MIN TEMP:  53; 6HR MAX TEMP:  62;


$$

LMZ046-743>745-260100-
SOUTHERN LAKE MICHIGAN

STATION/POSITION TIME  TEMP    WIND        PRES    WAVE
                       AIR SEA DIR/SP/G            HT
                 (UTC) (F)     (DEG/KT/KT) (MB)    (FT)
BURNS HARBOR     2340   40      10/  6/  8 1017.9F
MICHIGAN CITY    2330   40     350/ 10/ 11   N/A

$$

INZ004-005-014>016-021>024-260100-
NORTH CENTRAL INDIANA

CITY           SKY/WX    TMP DP  RH WIND       PRES   REMARKS
ELKHART        FAIR      48  27  43 NW9       29.99F
GOSHEN         FAIR      50  27  40 NW12      29.97F
6HR MIN TEMP:  50; 6HR MAX TEMP:  60;

PERU/GRISSOM   FAIR      52  28  39 N15       29.97R
6HR MIN TEMP:  52; 6HR MAX TEMP:  64;

ROCHESTER +    FAIR      52  30  43 NW13G18   30.00S
SOUTH BEND     FAIR      47  27  45 NW10      30.01F
6HR MIN TEMP:  47; 6HR MAX TEMP:  53;

WARSAW +       FAIR      48  28  46 NW9       29.99R

$$

INZ006>009-017-018-025>027-260100-
NORTHEAST INDIANA

CITY           SKY/WX    TMP DP  RH WIND       PRES   REMARKS
ANGOLA *+      FAIR      54  32  43 NW9G15    29.94R
FORT WAYNE     FAIR      55  33  43 NW13      29.94S
6HR MIN TEMP:  55; 6HR MAX TEMP:  65;

KENDALLVILLE +   N/A     52  26  36 NW7       29.96S

$$

INZ028-029-035-036-043>045-051>053-260100-
WEST CENTRAL INDIANA

CITY           SKY/WX    TMP DP  RH WIND       PRES   REMARKS
GREENCASTLE +  FAIR      57  34  41 N8        29.98R
LAFAYETTE      FAIR      52  29  41 N8G20     30.00S
6HR MIN TEMP:  52; 6HR MAX TEMP:  63;

TERRE HAUTE    FAIR      61  41  47 N12       29.96S
6HR MIN TEMP:  60; 6HR MAX TEMP:  67;


$$

INZ030>032-037>040-046>048-054>057-064-065-260100-
CENTRAL INDIANA

CITY           SKY/WX    TMP DP  RH WIND       PRES   REMARKS
COLUMBUS       CLEAR     59  45  58 MISG      29.94F
GREENWOOD *+   FAIR      58  38  47 N8        29.95S
6HR MIN TEMP:  56; 6HR MAX TEMP:  64;

INDIANAPOLIS   MOCLDY    58  35  42 N13       29.95S
6HR MIN TEMP:  56; 6HR MAX TEMP:  65;

-EAGLE CREEK   FAIR      58  33  39 NW10      29.95S
6HR MIN TEMP:  57; 6HR MAX TEMP:  65;

KOKOMO +       FAIR      53  31  42 N16       29.98S
6HR MIN TEMP:  53; 6HR MAX TEMP:  65;

MT COMFORT *+  FAIR      55  39  54 N10       29.96R
SHELBYVILLE    FAIR      60  42  51 N9        29.93F
6HR MIN TEMP:  60; 6HR MAX TEMP:  65;

ZIONSVILLE +   FAIR      54  34  45 N12       29.97S
6HR MIN TEMP:  54; 6HR MAX TEMP:  63;


$$

INZ033-034-041-042-049-050-058-059-260100-
EAST CENTRAL INDIANA

CITY           SKY/WX    TMP DP  RH WIND       PRES   REMARKS
MUNCIE         FAIR      58  33  39 NW13      29.94R
6HR MIN TEMP:  58; 6HR MAX TEMP:  66;

RICHMOND +     FAIR      59  36  41 NW9       29.93S

$$

INZ060-061-067>069-081>083-085>088-260100-
SOUTHWEST INDIANA

CITY           SKY/WX    TMP DP  RH WIND       PRES   REMARKS
EVANSVILLE     FAIR      65  51  60 N7        29.94F
6HR MIN TEMP:  65; 6HR MAX TEMP:  69;

HUNTINGBURG +  FAIR      63  50  62 N6        29.94S
6HR MIN TEMP:  63; 6HR MAX TEMP:  68;


$$

INZ062-063-066-070>080-084-089>092-260100-
SOUTH CENTRAL AND SOUTHEAST INDIANA

CITY           SKY/WX    TMP DP  RH WIND       PRES   REMARKS
BLOOMINGTON    FAIR      61  47  59 N3        29.94F
6HR MIN TEMP:  61; 6HR MAX TEMP:  65;

FRENCH LICK *+ CLOUDY    63  43  48 W5        29.94S
SEYMOUR +      FAIR      61  46  59 NE3       29.94F

$$





USA.gov is the U.S. government's official web portal to all federal, state and local government web resources and services.